Regional Weather Roundup
Issued by NWS

Home | Current Version | Previous Version | Text Only | Print | Product List | Glossary On
Versions: 1 2 3 4 5 6 7 8 9 10 11 12 13 14 15 16 17 18 19 20 21 22 23 24 25 26 27 28 29 30 31 32 33 34 35 36 37 38 39 40 41 42 43 44 45 46 47 48 49
000
ASUS43 KDMX 301807
RWRIA

WEATHER ROUNDUP FOR IOWA
NATIONAL WEATHER SERVICE DES MOINES IA
100 PM CDT WED JUL 30 2014

NOTE: "FAIR" INDICATES FEW OR NO CLOUDS BELOW 12,000 FEET WITH NO
SIGNIFICANT WEATHER AND/OR OBSTRUCTIONS TO VISIBILITY.

* - THESE STATIONS ARE NOT NWS STATIONS...THUS NOT UNDER NWS
QUALITY CONTROL.  THEY ALSO DO NOT REPORT WEATHER SUCH
AS PRECIPITATION OR FOG.

IAZ001>003-012>014-020>022-031>034-043>046-301900-
   NORTHWEST IOWA

CITY           SKY/WX    TMP DP  RH WIND       PRES   REMARKS
CARROLL *      MOSUNNY   75  55  50 NW6G12    30.14F
CHEROKEE *       N/A     74  55  50 CALM      30.14F
DENISON *      MOSUNNY   75  54  46 N5G13     30.13F
LE MARS *      MOSUNNY   75  54  46 VRB6      30.15F
ORANGE CITY *  SUNNY     77  52  41 NW5       30.16S
SHELDON *      MOSUNNY   75  55  50 N6        30.15F
SIOUX CITY     PTSUNNY   78  54  43 E5        30.14F
6HR MIN TEMP:  53; 6HR MAX TEMP:  79;

SPENCER          N/A     76  54  46 N6        30.15F
6HR MIN TEMP:  51; 6HR MAX TEMP:  78;

STORM LAKE *   SUNNY     73  57  56 N8        30.16F
$$

IAZ055>058-069>071-079>083-090>094-301900-
   SOUTHWEST IOWA

CITY           SKY/WX    TMP DP  RH WIND       PRES   REMARKS
ATLANTIC *     PTSUNNY   75  55  50 N7G14     30.13F
AUDUBON *      MOSUNNY   79  57  47 N8        30.16S HX  80
CLARINDA *     MOSUNNY   77  57  50 VRB3      30.15F
COUNCIL BLFS * MOSUNNY   77  57  50 N7        30.14F
CRESTON *      MOSUNNY   77  54  44 N8G14     30.14S
HARLAN  *      SUNNY     75  57  53 N9        30.17F
LAMONI           N/A     77  54  44 N7        30.13S
6HR MIN TEMP:  58; 6HR MAX TEMP:  78;

RED OAK *      PTSUNNY   77  55  47 VRB7      30.14F
SHENANDOAH *   PTSUNNY   77  57  50 NE6       30.15S
$$

IAZ047>049-059>061-072>074-084-301900-
   CENTRAL IOWA

CITY           SKY/WX    TMP DP  RH WIND       PRES   REMARKS
AMES           PTSUNNY   78  55  44 VRB5      30.12F
6HR MIN TEMP:  55; 6HR MAX TEMP:  78;

ANKENY *       MOSUNNY   77  55  47 NE6       30.12S
CHARITON *     PTSUNNY   75  55  50 N12       30.12F
DES MOINES       N/A     77  54  44 NE7       30.11F
6HR MIN TEMP:  60; 6HR MAX TEMP:  80;

GRINNELL*      PTSUNNY   75  57  53 NW3       30.11F
KNOXVILLE *    MOSUNNY   77  55  47 N8        30.10F
MARSHALLTOWN     N/A     78  57  48 N12       30.10F
6HR MIN TEMP:  56; 6HR MAX TEMP:  78;

PELLA *          N/A     78  58  49 N6        30.12F
PERRY *          N/A     75  57  53 NW3       30.13F
$$

IAZ004>006-015-016-023>025-035-036-301900-
   NORTH CENTRAL IOWA

CITY           SKY/WX    TMP DP  RH WIND       PRES   REMARKS
ALGONA *       MOSUNNY   75  59  57 VRB7      30.13F
CLARION *      PTSUNNY   75  57  53 N8        30.12F
ESTHERVILLE      N/A     75  56  51 N9        30.14F
6HR MIN TEMP:  55; 6HR MAX TEMP:  75;

FORT DODGE *     N/A     75  55  50 N6        30.14F
MASON CITY       N/A     77  56  48 N10       30.12F
6HR MIN TEMP:  56; 6HR MAX TEMP:  78;

FOREST CITY *  MOSUNNY   75  59  57 N8        30.12F
IOWA FALLS *     N/A     75  55  50 NW8       30.12F
$$

IAZ007>011-017>019-026>030-037>042-050>054-066-301900-
   NORTHEAST IOWA

CITY           SKY/WX    TMP DP  RH WIND       PRES   REMARKS
CEDAR RAPIDS     N/A     77  61  57 VRB7      30.08F
6HR MIN TEMP:  55; 6HR MAX TEMP:  77;

CHARLES CITY * MOSUNNY   75  57  53 NW9G15    30.10F
CLINTON *        N/A     75  61  60 CALM      30.09F
DECORAH *      MOSUNNY   73  59  60 N9        30.08F
DUBUQUE          N/A     75  58  55 W5        30.08F
6HR MIN TEMP:  58; 6HR MAX TEMP:  75;

MONTICELLO *   PTSUNNY   75  61  60 NW6       30.07F
OELWEIN *      SUNNY     75  59  57 NW9       30.09F
WATERLOO         N/A     78  58  49 N10G21    30.08F
6HR MIN TEMP:  56; 6HR MAX TEMP:  78;

$$

IAZ064-065-067-068-078-301900-
   EAST CENTRAL IOWA

CITY           SKY/WX    TMP DP  RH WIND       PRES   REMARKS
DAVENPORT        N/A     77  60  55 W9        30.08F
6HR MIN TEMP:  54; 6HR MAX TEMP:  77;

IOWA CITY        N/A     78  61  55 W7        30.10F HX  80
6HR MIN TEMP:  59; 6HR MAX TEMP:  78;

MT. PLEASANT *   N/A     77  55  45 W8G18     30.09F
MUSCATINE *    MOSUNNY   81  57  44 W12       30.07F HX  81
QUAD CITIES      N/A     79  59  50 W8        30.06F HX  80
6HR MIN TEMP:  58; 6HR MAX TEMP:  80;

$$

IAZ062-063-075>077-085>089-095>099-301900-
   SOUTHEAST IOWA

CITY           SKY/WX    TMP DP  RH WIND       PRES   REMARKS
BURLINGTON       N/A     78  57  48 NW9       30.08F
6HR MIN TEMP:  57; 6HR MAX TEMP:  78;

FAIRFIELD *    MOSUNNY   77  61  57 NW10      30.10F
FORT MADISON * SUNNY     79  61  53 NW6       30.10F HX  80
KEOKUK *       MOSUNNY   77  61  57 NW6G12    30.09S
OSKALOOSA *      N/A     76  61  59 NW6       30.10F
CENTERVILLE *  SUNNY     75  55  50 N6        30.13S
OTTUMWA          N/A     76  59  55 NW7G16    30.10S
6HR MIN TEMP:  57; 6HR MAX TEMP:  77;

WASHINGTON *   MOSUNNY   77  61  57 NW9       30.09F
$$

ABBREVIATIONS USED IN REMARKS
   TC - TEMPERATURES IN CELSIUS
  WCI - WIND CHILL INDEX
   HX - HEAT INDEX
  VSB - VISIBILITY
$$




USA.gov is the U.S. government's official web portal to all federal, state and local government web resources and services.